When you browse on this site, cookies collect data to enhance your experience and personalize the content and advertising you see.
Visit our Privacy Policy to learn more. By continuing to use the site, you agree to this use of cookies and data.
  • en France
  • Liste des pays
  • À 7 jours
  • Température de l'eau
  • Carte satellitaire
  • Carte météo
  • Widgets météo
  • user-avatar
    Se connecter

    Météo par heure à Vljora

    Ce jour, 18 Décembre, Mardi

    Heure Température Précipitation Vent Pression Humidité
    00:00 +8°C° 0.9 mm 6 m/s 759 mmHg 84%
    01:00 +7°C° 0 mm 6 m/s 758 mmHg 85%
    02:00 +7°C° 1 mm 6 m/s 759 mmHg 83%
    03:00 +6°C° 1 mm 7 m/s 759 mmHg 82%
    04:00 +6°C° 1 mm 8 m/s 760 mmHg 80%
    05:00 +6°C° 0.4 mm 8 m/s 760 mmHg 81%
    06:00 +6°C° 0.4 mm 8 m/s 760 mmHg 83%
    07:00 +5°C° 0.4 mm 7 m/s 761 mmHg 84%
    08:00 +5°C° 0.1 mm 7 m/s 761 mmHg 84%
    09:00 +6°C° 0.1 mm 7 m/s 762 mmHg 83%
    10:00 +6°C° 0.1 mm 7 m/s 762 mmHg 83%
    11:00 +6°C° 0 mm 7 m/s 762 mmHg 81%
    12:00 +8°C° 0 mm 7 m/s 762 mmHg 78%
    13:00 +9°C° 0 mm 8 m/s 762 mmHg 75%
    14:00 +7°C° 0 mm 8 m/s 763 mmHg 77%
    15:00 +7°C° 0 mm 8 m/s 763 mmHg 78%
    16:00 +7°C° 0 mm 8 m/s 763 mmHg 80%
    17:00 +6°C° 0 mm 8 m/s 764 mmHg 79%
    18:00 +6°C° 0 mm 8 m/s 764 mmHg 79%
    19:00 +5°C° 0 mm 7 m/s 764 mmHg 79%
    20:00 +5°C° 0 mm 7 m/s 765 mmHg 79%
    21:00 +5°C° 0 mm 7 m/s 765 mmHg 78%
    22:00 +5°C° 0 mm 6 m/s 766 mmHg 77%
    23:00 +5°C° 0 mm 6 m/s 766 mmHg 77%

    Demain, 19 Décembre, Mercredi

    Heure Température Précipitation Vent Pression Humidité
    00:00 +4°C° 0 mm 6 m/s 766 mmHg 77%
    01:00 +4°C° 0 mm 6 m/s 766 mmHg 76%
    02:00 +4°C° 0 mm 6 m/s 766 mmHg 76%
    03:00 +4°C° 0 mm 6 m/s 766 mmHg 75%
    04:00 +4°C° 0 mm 6 m/s 766 mmHg 75%
    05:00 +3°C° 0 mm 6 m/s 766 mmHg 75%
    06:00 +3°C° 0 mm 6 m/s 767 mmHg 74%
    07:00 +3°C° 0 mm 6 m/s 767 mmHg 74%
    08:00 +5°C° 0 mm 6 m/s 767 mmHg 71%
    09:00 +7°C° 0 mm 6 m/s 768 mmHg 68%
    10:00 +8°C° 0 mm 5 m/s 768 mmHg 65%
    11:00 +9°C° 0 mm 5 m/s 768 mmHg 64%
    12:00 +10°C° 0 mm 5 m/s 768 mmHg 62%
    13:00 +12°C° 0 mm 5 m/s 767 mmHg 61%
    14:00 +11°C° 0 mm 4 m/s 767 mmHg 65%
    15:00 +10°C° 0 mm 4 m/s 768 mmHg 69%
    16:00 +9°C° 0 mm 3 m/s 768 mmHg 74%
    17:00 +9°C° 0 mm 3 m/s 768 mmHg 75%
    18:00 +8°C° 0 mm 3 m/s 768 mmHg 75%
    19:00 +8°C° 0 mm 3 m/s 768 mmHg 76%
    20:00 +8°C° 0 mm 3 m/s 768 mmHg 77%
    21:00 +7°C° 0 mm 2 m/s 769 mmHg 77%
    22:00 +7°C° 0 mm 2 m/s 769 mmHg 77%
    23:00 +7°C° 0 mm 2 m/s 769 mmHg 79%

    Après-demain, 20 Décembre, Jeudi

    Heure Température Précipitation Vent Pression Humidité
    00:00 +7°C° 0 mm 2 m/s 769 mmHg 80%
    01:00 +7°C° 0 mm 2 m/s 769 mmHg 81%
    02:00 +7°C° 0 mm 2 m/s 769 mmHg 82%
    03:00 +7°C° 0 mm 3 m/s 768 mmHg 83%
    04:00 +7°C° 0 mm 3 m/s 768 mmHg 83%
    05:00 +6°C° 0 mm 4 m/s 769 mmHg 84%
    06:00 +6°C° 0 mm 4 m/s 769 mmHg 84%
    07:00 +6°C° 0 mm 5 m/s 769 mmHg 84%
    08:00 +7°C° 0 mm 5 m/s 769 mmHg 82%
    09:00 +8°C° 0 mm 6 m/s 769 mmHg 79%
    10:00 +10°C° 0 mm 6 m/s 769 mmHg 77%
    11:00 +11°C° 0 mm 6 m/s 768 mmHg 75%
    12:00 +11°C° 0 mm 6 m/s 768 mmHg 73%
    13:00 +12°C° 0 mm 7 m/s 768 mmHg 71%
    14:00 +11°C° 0 mm 7 m/s 768 mmHg 74%
    15:00 +10°C° 0 mm 7 m/s 768 mmHg 77%
    16:00 +10°C° 0 mm 7 m/s 767 mmHg 80%
    17:00 +9°C° 0 mm 7 m/s 768 mmHg 82%
    18:00 +9°C° 0 mm 7 m/s 768 mmHg 84%
    19:00 +8°C° 0 mm 7 m/s 768 mmHg 86%
    20:00 +8°C° 0 mm 7 m/s 768 mmHg 84%
    21:00 +8°C° 0 mm 7 m/s 768 mmHg 83%
    22:00 +8°C° 0 mm 7 m/s 768 mmHg 82%
    23:00 +8°C° 0 mm 7 m/s 768 mmHg 82%

    21 Décembre, Vendredi

    Heure Température Précipitation Vent Pression Humidité
    00:00 +8°C° 0 mm 7 m/s 768 mmHg 82%
    01:00 +8°C° 0 mm 7 m/s 768 mmHg 82%
    02:00 +8°C° 0 mm 6 m/s 768 mmHg 83%
    03:00 +8°C° 0 mm 6 m/s 768 mmHg 84%
    04:00 +8°C° 0 mm 6 m/s 768 mmHg 85%
    05:00 +8°C° 0.3 mm 5 m/s 768 mmHg 85%
    06:00 +8°C° 0.3 mm 5 m/s 768 mmHg 85%
    07:00 +8°C° 0.3 mm 5 m/s 769 mmHg 86%
    08:00 +11°C° 0.2 mm 4 m/s 769 mmHg 82%
    09:00 +12°C° 0.2 mm 3 m/s 769 mmHg 79%
    10:00 +13°C° 0.2 mm 3 m/s 770 mmHg 75%
    11:00 +14°C° 0.1 mm 3 m/s 769 mmHg 74%
    12:00 +14°C° 0.1 mm 3 m/s 769 mmHg 73%
    13:00 +16°C° 0.1 mm 3 m/s 769 mmHg 72%
    14:00 +14°C° 0.1 mm 3 m/s 769 mmHg 77%
    15:00 +13°C° 0.1 mm 3 m/s 769 mmHg 82%
    16:00 +13°C° 0.1 mm 3 m/s 769 mmHg 86%
    17:00 +12°C° 0 mm 3 m/s 770 mmHg 88%
    18:00 +12°C° 0 mm 3 m/s 770 mmHg 89%
    19:00 +11°C° 0 mm 3 m/s 770 mmHg 90%
    20:00 +12°C° 0 mm 2 m/s 770 mmHg 90%
    21:00 +12°C° 0 mm 2 m/s 770 mmHg 89%
    22:00 +10°C° 0 mm 2 m/s 770 mmHg 89%
    23:00 +10°C° 0 mm 2 m/s 770 mmHg 88%

    22 Décembre, Samedi

    Heure Température Précipitation Vent Pression Humidité
    00:00 +10°C° 0 mm 2 m/s 770 mmHg 88%
    01:00 +10°C° 0 mm 2 m/s 770 mmHg 88%
    02:00 +10°C° 0 mm 2 m/s 770 mmHg 87%
    03:00 +10°C° 0 mm 2 m/s 770 mmHg 87%
    04:00 +10°C° 0 mm 2 m/s 770 mmHg 86%
    05:00 +10°C° 0 mm 2 m/s 770 mmHg 86%
    06:00 +10°C° 0 mm 2 m/s 770 mmHg 86%
    07:00 +10°C° 0 mm 2 m/s 770 mmHg 86%
    08:00 +12°C° 0 mm 2 m/s 770 mmHg 83%
    09:00 +13°C° 0 mm 2 m/s 771 mmHg 79%
    10:00 +14°C° 0 mm 1 m/s 771 mmHg 75%
    11:00 +15°C° 0 mm 2 m/s 770 mmHg 73%
    12:00 +15°C° 0 mm 2 m/s 770 mmHg 70%
    13:00 +15°C° 0 mm 2 m/s 770 mmHg 67%
    14:00 +15°C° 0 mm 2 m/s 770 mmHg 70%
    15:00 +14°C° 0 mm 1 m/s 769 mmHg 74%
    16:00 +13°C° 0 mm 1 m/s 769 mmHg 77%
    17:00 +13°C° 0 mm 1 m/s 769 mmHg 79%
    18:00 +12°C° 0 mm 1 m/s 770 mmHg 81%
    19:00 +11°C° 0 mm 1 m/s 770 mmHg 82%
    20:00 +11°C° 0 mm 1 m/s 770 mmHg 82%
    21:00 +11°C° 0 mm 1 m/s 770 mmHg 82%
    22:00 +11°C° 0 mm 1 m/s 770 mmHg 82%
    23:00 +11°C° 0 mm 1 m/s 770 mmHg 82%

    23 Décembre, Dimanche

    Heure Température Précipitation Vent Pression Humidité
    00:00 +11°C° 0 mm 1 m/s 769 mmHg 82%
    01:00 +10°C° 0 mm 1 m/s 769 mmHg 81%
    02:00 +10°C° 0 mm 1 m/s 769 mmHg 82%
    03:00 +10°C° 0 mm 1 m/s 769 mmHg 82%
    04:00 +10°C° 0 mm 1 m/s 769 mmHg 82%
    05:00 +10°C° 0 mm 1 m/s 769 mmHg 81%
    06:00 +10°C° 0 mm 1 m/s 769 mmHg 81%
    07:00 +10°C° 0 mm 1 m/s 769 mmHg 81%
    08:00 +11°C° 0 mm 1 m/s 769 mmHg 76%
    09:00 +13°C° 0 mm 1 m/s 769 mmHg 71%
    10:00 +14°C° 0 mm 1 m/s 769 mmHg 67%
    11:00 +15°C° 0 mm 1 m/s 769 mmHg 66%
    12:00 +16°C° 0 mm 1 m/s 769 mmHg 65%
    13:00 +16°C° 0 mm 1 m/s 768 mmHg 64%
    14:00 +16°C° 0 mm 2 m/s 768 mmHg 68%
    15:00 +15°C° 0 mm 2 m/s 768 mmHg 73%
    16:00 +14°C° 0 mm 2 m/s 769 mmHg 77%
    17:00 +12°C° 0 mm 3 m/s 769 mmHg 79%
    18:00 +12°C° 0 mm 3 m/s 769 mmHg 81%
    19:00 +11°C° 0 mm 3 m/s 769 mmHg 83%
    20:00 +11°C° 0 mm 3 m/s 770 mmHg 82%
    21:00 +11°C° 0 mm 3 m/s 770 mmHg 82%
    22:00 +10°C° 0 mm 3 m/s 770 mmHg 82%
    23:00 +10°C° 0 mm 3 m/s 770 mmHg 81%
    Voir plus